Year,Month,Day,Hour,Minute,Value (Times are PST for temperature in C)
2012,04,15,07,27,7.40
2012,04,15,07,28,7.40
2012,04,15,07,29,7.50
2012,04,15,07,30,7.60
2012,04,15,07,31,7.80
2012,04,15,07,32,7.90
2012,04,15,07,33,8.00
2012,04,15,07,34,8.20
2012,04,15,07,35,8.30
2012,04,15,07,36,8.40
2012,04,15,07,37,8.60
2012,04,15,07,38,8.70
2012,04,15,07,39,8.80
2012,04,15,07,40,8.90
2012,04,15,07,41,9.00
2012,04,15,07,42,9.10
2012,04,15,07,43,9.20
2012,04,15,07,44,9.30
2012,04,15,07,45,9.30
2012,04,15,07,46,9.40
2012,04,15,07,47,9.50
2012,04,15,07,48,9.50
2012,04,15,07,49,9.60
2012,04,15,07,50,9.60
2012,04,15,07,51,9.60
2012,04,15,07,52,9.70
2012,04,15,07,53,9.80
2012,04,15,07,54,9.80
2012,04,15,07,55,9.90
2012,04,15,07,56,9.90
2012,04,15,07,57,10.00
2012,04,15,07,58,10.10
2012,04,15,07,59,10.20
2012,04,15,08,00,10.20
2012,04,15,08,01,10.20
2012,04,15,08,02,10.20
2012,04,15,08,03,10.20
2012,04,15,08,04,10.30
2012,04,15,08,05,10.30
2012,04,15,08,06,10.30
2012,04,15,08,07,10.30
2012,04,15,08,08,10.40
2012,04,15,08,09,10.40
2012,04,15,08,10,10.30
2012,04,15,08,11,10.40
2012,04,15,08,12,10.40
2012,04,15,08,13,10.40
2012,04,15,08,14,10.40
2012,04,15,08,15,10.40
2012,04,15,08,16,10.50
2012,04,15,08,17,10.50
2012,04,15,08,18,10.60
2012,04,15,08,19,10.60
2012,04,15,08,20,10.60
2012,04,15,08,21,10.60
2012,04,15,08,22,10.60
2012,04,15,08,23,10.50
2012,04,15,08,24,10.50
2012,04,15,08,25,10.50
2012,04,15,08,26,10.50
2012,04,15,08,27,10.50
2012,04,15,08,28,10.50
2012,04,15,08,29,10.50
2012,04,15,08,30,10.50
2012,04,15,08,31,10.50
2012,04,15,08,32,10.50
2012,04,15,08,33,10.50
2012,04,15,08,34,10.50
2012,04,15,08,35,10.50
2012,04,15,08,36,10.50
2012,04,15,08,37,10.40
2012,04,15,08,38,10.40
2012,04,15,08,39,10.40
2012,04,15,08,40,10.40
2012,04,15,08,41,10.40
2012,04,15,08,42,10.40
2012,04,15,08,43,10.50
2012,04,15,08,44,10.50
2012,04,15,08,45,10.50
2012,04,15,08,46,10.40
2012,04,15,08,47,10.30
2012,04,15,08,48,10.30
2012,04,15,08,49,10.20
2012,04,15,08,50,10.20
2012,04,15,08,51,10.20
2012,04,15,08,52,10.20
2012,04,15,08,53,10.30
2012,04,15,08,54,10.30
2012,04,15,08,55,10.30
2012,04,15,08,56,10.30
2012,04,15,08,57,10.30
2012,04,15,08,58,10.30
2012,04,15,08,59,10.30
2012,04,15,09,00,10.30
2012,04,15,09,01,10.30
2012,04,15,09,02,10.20
2012,04,15,09,03,10.20
2012,04,15,09,04,10.30
2012,04,15,09,05,10.30
2012,04,15,09,06,10.30
2012,04,15,09,07,10.40
2012,04,15,09,08,10.40
2012,04,15,09,09,10.50
2012,04,15,09,10,10.50
2012,04,15,09,11,10.60
2012,04,15,09,12,10.70
2012,04,15,09,13,10.70
2012,04,15,09,14,10.80
2012,04,15,09,15,10.80
2012,04,15,09,16,10.80
2012,04,15,09,17,10.90
2012,04,15,09,18,10.90
2012,04,15,09,19,10.90
2012,04,15,09,20,11.00
2012,04,15,09,21,11.00
2012,04,15,09,22,11.10
2012,04,15,09,23,11.10
2012,04,15,09,24,11.10
2012,04,15,09,25,11.10
2012,04,15,09,26,11.20
2012,04,15,09,27,11.20
2012,04,15,09,28,11.20
2012,04,15,09,29,11.20
2012,04,15,09,30,11.20
2012,04,15,09,31,11.20
2012,04,15,09,32,11.20
2012,04,15,09,33,11.10
2012,04,15,09,34,11.10
2012,04,15,09,35,11.10
2012,04,15,09,36,11.10
2012,04,15,09,37,11.20
2012,04,15,09,38,11.20
2012,04,15,09,39,11.20
2012,04,15,09,40,11.30
2012,04,15,09,41,11.30
2012,04,15,09,42,11.30
2012,04,15,09,43,11.30
2012,04,15,09,44,11.40
2012,04,15,09,45,11.40
2012,04,15,09,46,11.40
2012,04,15,09,47,11.30
2012,04,15,09,48,11.30
2012,04,15,09,49,11.30
2012,04,15,09,50,11.40
2012,04,15,09,51,11.40
2012,04,15,09,52,11.50
2012,04,15,09,53,11.60
2012,04,15,09,54,11.60
2012,04,15,09,55,11.60
2012,04,15,09,56,11.50
2012,04,15,09,57,11.50
2012,04,15,09,58,11.50
2012,04,15,09,59,11.50
2012,04,15,10,00,11.40
2012,04,15,10,01,11.40
2012,04,15,10,02,11.40
2012,04,15,10,03,11.50
2012,04,15,10,04,11.60
2012,04,15,10,05,11.70
2012,04,15,10,06,11.90
2012,04,15,10,07,11.90
2012,04,15,10,08,11.90
2012,04,15,10,09,11.90
2012,04,15,10,10,11.90
2012,04,15,10,11,11.80
2012,04,15,10,12,11.70
2012,04,15,10,13,11.60
2012,04,15,10,14,11.70
2012,04,15,10,15,11.70
2012,04,15,10,16,11.80
2012,04,15,10,17,11.80
2012,04,15,10,18,11.80
2012,04,15,10,19,11.80
2012,04,15,10,20,11.80
2012,04,15,10,21,11.90
2012,04,15,10,22,11.80
2012,04,15,10,23,11.80
2012,04,15,10,24,11.70
2012,04,15,10,25,11.70
2012,04,15,10,26,11.60
2012,04,15,10,27,11.60
2012,04,15,10,28,11.60
2012,04,15,10,29,11.50
2012,04,15,10,30,11.60
2012,04,15,10,31,11.70
2012,04,15,10,32,11.70
2012,04,15,10,33,11.70
2012,04,15,10,34,11.80
2012,04,15,10,35,11.80
2012,04,15,10,36,11.90
2012,04,15,10,37,12.00
2012,04,15,10,38,12.00
2012,04,15,10,39,12.00
2012,04,15,10,40,12.00
2012,04,15,10,41,11.90
2012,04,15,10,42,11.80
2012,04,15,10,43,11.80
2012,04,15,10,44,11.80
2012,04,15,10,45,11.80
2012,04,15,10,46,11.60
2012,04,15,10,47,11.50
2012,04,15,10,48,11.40
2012,04,15,10,49,11.30
2012,04,15,10,50,11.30
2012,04,15,10,51,11.30
2012,04,15,10,52,11.30
2012,04,15,10,53,11.30
2012,04,15,10,54,11.40
2012,04,15,10,55,11.40
2012,04,15,10,56,11.30
2012,04,15,10,57,11.30
2012,04,15,10,58,11.30
2012,04,15,10,59,11.40
2012,04,15,11,00,11.50
2012,04,15,11,01,11.40
2012,04,15,11,02,11.50
2012,04,15,11,03,11.50
2012,04,15,11,04,11.50
2012,04,15,11,05,11.50
2012,04,15,11,06,11.60
2012,04,15,11,07,11.50
2012,04,15,11,08,11.50
2012,04,15,11,09,11.50
2012,04,15,11,10,11.40
2012,04,15,11,11,11.40
2012,04,15,11,12,11.40
2012,04,15,11,13,11.30
2012,04,15,11,14,11.30
2012,04,15,11,15,11.30
2012,04,15,11,16,11.30
2012,04,15,11,17,11.30
2012,04,15,11,18,11.30
2012,04,15,11,19,11.30
2012,04,15,11,20,11.30
2012,04,15,11,21,11.20
2012,04,15,11,22,11.20
2012,04,15,11,23,11.20
2012,04,15,11,24,11.20
2012,04,15,11,25,11.30
2012,04,15,11,26,11.40
2012,04,15,11,27,11.40
2012,04,15,11,28,11.40
2012,04,15,11,29,11.50
2012,04,15,11,30,11.60
2012,04,15,11,31,11.60
2012,04,15,11,32,11.50
2012,04,15,11,33,11.40
2012,04,15,11,34,11.40
2012,04,15,11,35,11.50
2012,04,15,11,36,11.60
2012,04,15,11,37,11.60
2012,04,15,11,38,11.60
2012,04,15,11,39,11.60
2012,04,15,11,40,11.70
2012,04,15,11,41,11.80
2012,04,15,11,42,11.80
2012,04,15,11,43,11.80
2012,04,15,11,44,11.80
2012,04,15,11,45,11.80
2012,04,15,11,46,11.80
2012,04,15,11,47,11.80
2012,04,15,11,48,11.80
2012,04,15,11,49,11.80
2012,04,15,11,50,11.90
2012,04,15,11,51,11.90
2012,04,15,11,52,11.90
2012,04,15,11,53,12.00
2012,04,15,11,54,12.00
2012,04,15,11,55,11.90
2012,04,15,11,56,11.90
2012,04,15,11,57,11.90
2012,04,15,11,58,11.90
2012,04,15,11,59,11.80
2012,04,15,12,00,11.70
2012,04,15,12,01,11.70
2012,04,15,12,02,11.60
2012,04,15,12,03,11.50
2012,04,15,12,04,11.50
2012,04,15,12,05,11.60
2012,04,15,12,06,11.50
2012,04,15,12,07,11.50
2012,04,15,12,08,11.50
2012,04,15,12,09,11.60
2012,04,15,12,10,11.70
2012,04,15,12,11,11.80
2012,04,15,12,12,11.70
2012,04,15,12,13,11.80
2012,04,15,12,14,11.90
2012,04,15,12,15,12.00
2012,04,15,12,16,12.10
2012,04,15,12,17,12.20
2012,04,15,12,18,12.10
2012,04,15,12,19,11.90
2012,04,15,12,20,11.80
2012,04,15,12,21,11.80
2012,04,15,12,22,11.80
2012,04,15,12,23,11.80
2012,04,15,12,24,11.90
2012,04,15,12,25,11.90
2012,04,15,12,26,12.00
2012,04,15,12,27,12.00
2012,04,15,12,28,11.90
2012,04,15,12,29,11.90
2012,04,15,12,30,11.90
2012,04,15,12,31,11.90
2012,04,15,12,32,11.90
2012,04,15,12,33,11.90
2012,04,15,12,34,12.10
2012,04,15,12,35,12.20
2012,04,15,12,36,12.30
2012,04,15,12,37,12.40
2012,04,15,12,38,12.40
2012,04,15,12,39,12.50
2012,04,15,12,40,12.50
2012,04,15,12,41,12.60
2012,04,15,12,42,12.60
2012,04,15,12,43,12.70
2012,04,15,12,44,12.70
2012,04,15,12,45,12.70
2012,04,15,12,46,12.80
2012,04,15,12,47,12.80
2012,04,15,12,48,12.80
2012,04,15,12,49,12.80
2012,04,15,12,50,12.70
2012,04,15,12,51,12.50
2012,04,15,12,52,12.50
2012,04,15,12,53,12.40
2012,04,15,12,54,12.40
2012,04,15,12,55,12.30
2012,04,15,12,56,12.30
2012,04,15,12,57,12.20
2012,04,15,12,58,12.20
2012,04,15,12,59,12.20
2012,04,15,13,00,12.10
2012,04,15,13,01,12.00
2012,04,15,13,02,11.90
2012,04,15,13,03,12.00
2012,04,15,13,04,11.90
2012,04,15,13,05,11.90
2012,04,15,13,06,12.00
2012,04,15,13,07,12.00
2012,04,15,13,08,12.10
2012,04,15,13,09,12.10
2012,04,15,13,10,12.10
2012,04,15,13,11,12.20
2012,04,15,13,12,12.20
2012,04,15,13,13,12.20
2012,04,15,13,14,12.20
2012,04,15,13,15,12.20
2012,04,15,13,16,12.10
2012,04,15,13,17,12.00
2012,04,15,13,18,12.00
2012,04,15,13,19,11.90
2012,04,15,13,20,11.90
2012,04,15,13,21,11.90
2012,04,15,13,22,11.90
2012,04,15,13,23,11.90
2012,04,15,13,24,11.90
2012,04,15,13,25,12.00
2012,04,15,13,26,12.00
2012,04,15,13,27,11.90
2012,04,15,13,28,11.90
2012,04,15,13,29,11.80
2012,04,15,13,30,11.80
2012,04,15,13,31,11.80
2012,04,15,13,32,11.80
2012,04,15,13,33,11.80
2012,04,15,13,34,11.80
2012,04,15,13,35,11.80
2012,04,15,13,36,11.70
2012,04,15,13,37,11.80
2012,04,15,13,38,11.80
2012,04,15,13,39,11.70
2012,04,15,13,40,11.70
2012,04,15,13,41,11.70
2012,04,15,13,42,11.80
2012,04,15,13,43,11.80
2012,04,15,13,44,11.90
2012,04,15,13,45,12.10
2012,04,15,13,46,12.00
2012,04,15,13,47,12.00
2012,04,15,13,48,11.90
2012,04,15,13,49,11.80
2012,04,15,13,50,11.80
2012,04,15,13,51,11.80
2012,04,15,13,52,11.80
2012,04,15,13,53,11.80
2012,04,15,13,54,11.80
2012,04,15,13,55,11.80
2012,04,15,13,56,11.80
2012,04,15,13,57,11.80
2012,04,15,13,58,11.80
2012,04,15,13,59,11.80
2012,04,15,14,00,11.80
2012,04,15,14,01,11.70
2012,04,15,14,02,11.70
2012,04,15,14,03,11.70
2012,04,15,14,04,11.70
2012,04,15,14,05,11.70
2012,04,15,14,06,11.70
2012,04,15,14,07,11.70
2012,04,15,14,08,11.70
2012,04,15,14,09,11.70
2012,04,15,14,10,11.70
2012,04,15,14,11,11.70
2012,04,15,14,12,11.80
2012,04,15,14,13,11.80
2012,04,15,14,14,11.70
2012,04,15,14,15,11.70
2012,04,15,14,16,11.60
2012,04,15,14,17,11.60
2012,04,15,14,18,11.70
2012,04,15,14,19,11.70
2012,04,15,14,20,11.80
2012,04,15,14,21,11.80
2012,04,15,14,22,11.90
2012,04,15,14,23,11.90
2012,04,15,14,24,11.80
2012,04,15,14,25,11.70
2012,04,15,14,26,11.70
2012,04,15,14,27,11.70
2012,04,15,14,28,11.80
2012,04,15,14,29,11.80
2012,04,15,14,30,11.80
2012,04,15,14,31,11.80
2012,04,15,14,32,11.80
2012,04,15,14,33,11.90
2012,04,15,14,34,11.90
2012,04,15,14,35,11.90
2012,04,15,14,36,12.00
2012,04,15,14,37,12.00
2012,04,15,14,38,12.20
2012,04,15,14,39,12.20
2012,04,15,14,40,12.30
2012,04,15,14,41,12.40
2012,04,15,14,42,12.50
2012,04,15,14,43,12.50
2012,04,15,14,44,12.50
2012,04,15,14,45,12.60
2012,04,15,14,46,12.60
2012,04,15,14,47,12.60
2012,04,15,14,48,12.60
2012,04,15,14,49,12.60
2012,04,15,14,50,12.60
2012,04,15,14,51,12.60
2012,04,15,14,52,12.60
2012,04,15,14,53,12.50
2012,04,15,14,54,12.60
2012,04,15,14,55,12.60
2012,04,15,14,56,12.70
2012,04,15,14,57,12.60
2012,04,15,14,58,12.60
2012,04,15,14,59,12.50
2012,04,15,15,00,12.50
2012,04,15,15,01,12.40
2012,04,15,15,02,12.40
2012,04,15,15,03,12.40
2012,04,15,15,04,12.40
2012,04,15,15,05,12.60
2012,04,15,15,06,12.70
2012,04,15,15,07,12.70
2012,04,15,15,08,12.70
2012,04,15,15,09,12.70
2012,04,15,15,10,12.70
2012,04,15,15,11,12.70
2012,04,15,15,12,12.60
2012,04,15,15,13,12.50
2012,04,15,15,14,12.60
2012,04,15,15,15,12.50
2012,04,15,15,16,12.50
2012,04,15,15,17,12.50
2012,04,15,15,18,12.60
2012,04,15,15,19,12.70
2012,04,15,15,20,12.80
2012,04,15,15,21,12.70
2012,04,15,15,22,12.70
2012,04,15,15,23,12.70
2012,04,15,15,24,12.70
2012,04,15,15,25,12.70
2012,04,15,15,26,12.60
2012,04,15,15,27,12.60
2012,04,15,15,28,12.60
2012,04,15,15,29,12.60
2012,04,15,15,30,12.60
2012,04,15,15,31,12.60
2012,04,15,15,32,12.70
2012,04,15,15,33,12.70
2012,04,15,15,34,12.70
2012,04,15,15,35,12.70
2012,04,15,15,36,12.80
2012,04,15,15,37,12.80
2012,04,15,15,38,12.80
2012,04,15,15,39,13.00
2012,04,15,15,40,13.00
2012,04,15,15,41,12.90
2012,04,15,15,42,12.90
2012,04,15,15,43,12.90
2012,04,15,15,44,13.00
2012,04,15,15,45,13.10
2012,04,15,15,46,13.10
2012,04,15,15,47,13.10
2012,04,15,15,48,13.00
2012,04,15,15,49,13.00
2012,04,15,15,50,13.00
2012,04,15,15,51,13.00
2012,04,15,15,52,13.10
2012,04,15,15,53,13.10
2012,04,15,15,54,13.00
2012,04,15,15,55,13.00
2012,04,15,15,56,13.10
2012,04,15,15,57,13.10
2012,04,15,15,58,13.10
2012,04,15,15,59,13.00
2012,04,15,16,00,13.00
2012,04,15,16,01,12.90
2012,04,15,16,02,12.90
2012,04,15,16,03,12.90
2012,04,15,16,04,12.80
2012,04,15,16,05,12.90
2012,04,15,16,06,12.90
2012,04,15,16,07,12.90
2012,04,15,16,08,12.90
2012,04,15,16,09,12.90
2012,04,15,16,10,12.90
2012,04,15,16,11,12.90
2012,04,15,16,12,12.80
2012,04,15,16,13,12.80
2012,04,15,16,14,12.70
2012,04,15,16,15,12.70
2012,04,15,16,16,12.70
2012,04,15,16,17,12.70
2012,04,15,16,18,12.60
2012,04,15,16,19,12.50
2012,04,15,16,20,12.40
2012,04,15,16,21,12.40
2012,04,15,16,22,12.40
2012,04,15,16,23,12.40
2012,04,15,16,24,12.50
2012,04,15,16,25,12.50
2012,04,15,16,26,12.50
2012,04,15,16,27,12.50
2012,04,15,16,28,12.60
2012,04,15,16,29,12.50
2012,04,15,16,30,12.60
2012,04,15,16,31,12.60
2012,04,15,16,32,12.70
2012,04,15,16,33,12.70
2012,04,15,16,34,12.70
2012,04,15,16,35,12.70
2012,04,15,16,36,12.70
2012,04,15,16,37,12.70
2012,04,15,16,38,12.70
2012,04,15,16,39,12.70
2012,04,15,16,40,12.70
2012,04,15,16,41,12.70
2012,04,15,16,42,12.70
2012,04,15,16,43,12.70
2012,04,15,16,44,12.60
2012,04,15,16,45,12.60
2012,04,15,16,46,12.60
2012,04,15,16,47,12.60
2012,04,15,16,48,12.60
2012,04,15,16,49,12.70
2012,04,15,16,50,12.70
2012,04,15,16,51,12.80
2012,04,15,16,52,12.80
2012,04,15,16,53,12.80
2012,04,15,16,54,12.80
2012,04,15,16,55,12.80
2012,04,15,16,56,12.80
2012,04,15,16,57,12.80
2012,04,15,16,58,12.80
2012,04,15,16,59,12.80
2012,04,15,17,00,12.80
2012,04,15,17,01,12.80
2012,04,15,17,02,12.80
2012,04,15,17,03,12.80
2012,04,15,17,04,12.80
2012,04,15,17,05,12.70
2012,04,15,17,06,12.80
2012,04,15,17,07,12.80
2012,04,15,17,08,12.80
2012,04,15,17,09,12.80
2012,04,15,17,10,12.80
2012,04,15,17,11,12.80
2012,04,15,17,12,12.80
2012,04,15,17,13,12.80
2012,04,15,17,14,12.80
2012,04,15,17,15,12.80
2012,04,15,17,16,12.70
2012,04,15,17,17,12.60
2012,04,15,17,18,12.60
2012,04,15,17,19,12.50
2012,04,15,17,20,12.50
2012,04,15,17,21,12.50
2012,04,15,17,22,12.50
2012,04,15,17,23,12.40
2012,04,15,17,24,12.40
2012,04,15,17,25,12.40
2012,04,15,17,26,12.40
2012,04,15,17,27,12.30
2012,04,15,17,28,12.30
2012,04,15,17,29,12.30
2012,04,15,17,30,12.30
2012,04,15,17,31,12.30
2012,04,15,17,32,12.20
2012,04,15,17,33,12.20
2012,04,15,17,34,12.20
2012,04,15,17,35,12.20
2012,04,15,17,36,12.20
2012,04,15,17,37,12.20
2012,04,15,17,38,12.30
2012,04,15,17,39,12.30
2012,04,15,17,40,12.30
2012,04,15,17,41,12.30
2012,04,15,17,42,12.30
2012,04,15,17,43,12.30
2012,04,15,17,44,12.30
2012,04,15,17,45,12.40
2012,04,15,17,46,12.40
2012,04,15,17,47,12.40
2012,04,15,17,48,12.30
2012,04,15,17,49,12.30
2012,04,15,17,50,12.30
2012,04,15,17,51,12.20
2012,04,15,17,52,12.20
2012,04,15,17,53,12.30
2012,04,15,17,54,12.30
2012,04,15,17,55,12.30
2012,04,15,17,56,12.30
2012,04,15,17,57,12.30
2012,04,15,17,58,12.30
2012,04,15,17,59,12.30
2012,04,15,18,00,12.20
2012,04,15,18,01,12.30
2012,04,15,18,02,12.20
2012,04,15,18,03,12.20
2012,04,15,18,04,12.30
2012,04,15,18,05,12.30
2012,04,15,18,06,12.30
2012,04,15,18,07,12.30
2012,04,15,18,08,12.30
2012,04,15,18,09,12.30
2012,04,15,18,10,12.30
2012,04,15,18,11,12.30
2012,04,15,18,12,12.30
2012,04,15,18,13,12.30
2012,04,15,18,14,12.30
2012,04,15,18,15,12.30
2012,04,15,18,16,12.30
2012,04,15,18,17,12.30
2012,04,15,18,18,12.30
2012,04,15,18,19,12.30
2012,04,15,18,20,12.30
2012,04,15,18,21,12.30
2012,04,15,18,22,12.40
2012,04,15,18,23,12.40
2012,04,15,18,24,12.40
2012,04,15,18,25,12.40
2012,04,15,18,26,12.40
2012,04,15,18,27,12.40
2012,04,15,18,28,12.40
2012,04,15,18,29,12.50
2012,04,15,18,30,12.50
2012,04,15,18,31,12.50
2012,04,15,18,32,12.50
2012,04,15,18,33,12.50
2012,04,15,18,34,12.50
2012,04,15,18,35,12.50
2012,04,15,18,36,12.50
2012,04,15,18,37,12.50
2012,04,15,18,38,12.50
2012,04,15,18,39,12.50
2012,04,15,18,40,12.50
2012,04,15,18,41,12.50
2012,04,15,18,42,12.50
2012,04,15,18,43,12.50
2012,04,15,18,44,12.50
2012,04,15,18,45,12.50
2012,04,15,18,46,12.50
2012,04,15,18,47,12.40
2012,04,15,18,48,12.40
2012,04,15,18,49,12.40
2012,04,15,18,50,12.40
2012,04,15,18,51,12.40
2012,04,15,18,52,12.40
2012,04,15,18,53,12.40
2012,04,15,18,54,12.40
2012,04,15,18,55,12.40
2012,04,15,18,56,12.40
2012,04,15,18,57,12.40
2012,04,15,18,58,12.40
2012,04,15,18,59,12.40
2012,04,15,19,00,12.40
2012,04,15,19,01,12.40
2012,04,15,19,02,12.40
